Orbital Elements at Epoch 2459000.5 (2020-May-31.0) TDB
Reference: JPL 37 (heliocentric ecliptic J2000)
Element | Value | Uncertainty (1-sigma) | Units |
e | .2241713165240622 | 7.7585e-08 | |
a | 2.533438117233152 | 1.4159e-08 | au |
q | 1.965513959160755 | 1.9743e-07 | au |
i | 11.35341159192659 | 8.299e-06 | deg |
node | 326.3297007779216 | 3.6007e-05 | deg |
peri | 263.9889728745072 | 4.0063e-05 | deg |
M | 166.1238387973495 | 1.9527e-05 | deg |
tp | 2458320.837458549709 (2018-Jul-21.33745855) | 7.8399e-05 | TDB |
period | 1472.868172885062 4.03 | 1.2348e-05 3.381e-08 | d yr |
n | .2444210599614153 | 2.0491e-09 | deg/d |
Q | 3.101362275305549 | 1.7334e-08 | au |
|
| | Orbit Determination Parameters
Additional Information
|